STARLINK-35804

Last updated on Sun Dec 07 2025 00:02:05 GMT+0000 (Coordinated Universal Time)

1 66371U 25254Z 25340.33160075 .00374164 00000+0 24294-2 0 9997 2 66371 53.1587 306.6805 0001258 307.0115 53.0789 15.74358918 4675
UTC large
Height (km)
Speed (km/s)
/
Latitude / Longitude
Inclination (degrees)
Orbital Period (minutes)
Azimuth
Elevation
Range (km)
Doppler Factor

Next 0 passes for location: London (51.5072 / 0.1276)

Sorry there are no passes over London.